Location: Chiroubles
(46.1812°N, 4.6660°E)
Time: 01:05:29
(UTC+00:00)

Meteor 2-4 Rocket - Pass Details

Date: 15 August 2020
Orbit: 798 x 909 km, 81.2° (Epoch: 27 September)

Event Time Altitude Azimuth Distance (km) Brightness Sun altitude
Rises 21:34:52 0° 344° (NNW) 3,431 8.1 -23.3°
Reaches altitude 10° 21:37:23 10° 340° (NNW) 2,474 7.2 -23.5°
Maximum altitude 21:42:46 50° 266° (W) 1,041 4.3 -24.1°
Enters shadow 21:44:41 35° 214° (SSW) 1,308 4.4 -24.2°
